sat.trackr.live / text

‹ back to catalog

STARLINK-35819

NORAD 66285 · 2025-247W

PAYLOAD ACTIVE UNKNOWN

§ Identity

Operator
Country
US
Launch date
2025-10-31
Launch site
AFWTR
Launch vehicle
Mass (kg)
RCS (m²)

Purposes: comms

External: N2YO · Heavens-Above · Gunter

§ Orbital elements

Epoch: 2026-05-24T20:22:01.349472Z

Period
94.10 min
Inclination
53.1575°
Eccentricity
0.0001306
Mean motion
15.30207263 rev/d
Perigee alt
474.3 km
Apogee alt
476.1 km
Semi-major
6,853.3 km
B*
4.4429e-4
RAAN
197.7083°
Arg perigee
67.3202°
Mean anomaly
292.7937°
Rev number
3,269

§ Raw data

STARLINK-358191 66285U 25247W   26144.84862673  .00012825  00000+0  44429-3 0  99912 66285  53.1575 197.7083 0001306  67.3202 292.7937 15.30207263 32698

JSON: /api/v1/satellites/66285 · /tle

For live sub-satellite position, see the globe view (requires WebGL).

§ Visibility from observer

Set your observer location to see the next 7 days of passes ≥ 10°. The values pass through the URL so the page stays shareable.

No JS? Fill the form by hand. The geolocation button needs JavaScript.